Location: Tel Aviv
(32.0670°N, 34.7670°E)
Time: 07:50:58
(UTC+03:00)

ITAMSAT 1 - Visible Passes

Search period start: 19 September 2024 00:00
Search period end: 29 September 2024 00:00
Orbit: 781 x 795 km, 98.8° (Epoch: 18 September)

Date Brightness Start Highest point End Pass type
(mag) Time Alt. Az. Time Alt. Az. Time Alt. Az.
19 Sep 9.8 20:07:10 10° NE 20:07:10 10° NE 20:07:14 10° NE visible
19 Sep 9.9 21:47:51 19° NNW 21:47:51 19° NNW 21:49:17 10° NNW visible
20 Sep 9.6 21:17:38 20° N 21:17:38 20° N 21:19:16 10° N visible
21 Sep 9.6 20:47:25 17° NNE 20:47:25 17° NNE 20:48:47 10° N visible
22 Sep 9.9 20:17:12 11° NE 20:17:12 11° NE 20:17:30 10° NNE visible
22 Sep 10.3 21:57:53 14° NNW 21:57:53 14° NNW 21:58:39 10° NNW visible
23 Sep 9.9 21:27:40 17° N 21:27:40 17° N 21:28:46 10° N visible
24 Sep 9.8 20:57:26 15° NNE 20:57:26 15° NNE 20:58:26 10° N visible
25 Sep 9.9 20:27:13 11° NNE 20:27:13 11° NNE 20:27:29 10° NNE visible
25 Sep 10.6 22:07:55 10° NNW 22:07:55 10° NNW 22:07:57 10° NNW visible
26 Sep 10.2 21:37:41 13° NNW 21:37:41 13° NNW 21:38:12 10° NNW visible
27 Sep 10.0 21:07:28 13° N 21:07:28 13° N 21:08:01 10° N visible
28 Sep 10.1 20:37:14 10° NNE 20:37:14 10° NNE 20:37:18 10° NNE visible
